This demonstration page uses our WeatherBlox Daily Observations layout. Learn more.

Hourly Observations for August 1, 2017

Temp ( °F °C ) Dew Point ( °F °C ) Humidity (%) Winds ( mph kmh ) Pressure ( in mb ) Visibility ( mi km ) Precip ( " mm )
12:15 am 00:15 Clear 72 22 68 20 88 88 W 3 6 30.09 1019 10 16.09344 0 0
12:35 am 00:35 Clear 72 22 68 20 88 88 Calm 30.09 1019 10 16.09344 0 0
12:55 am 00:55 Clear 72 22 68 20 88 88 Calm 30.09 1019 10 16.09344 0 0
1:15 am 01:15 Clear 72 22 68 20 88 88 Calm 30.09 1019 10 16.09344 0 0
1:35 am 01:35 Clear 70 21 68 20 94 94 W 5 7 30.09 1019 10 16.09344 0 0
1:55 am 01:55 Clear 70 21 68 20 94 94 Calm 30.09 1019 10 16.09344 0 0
2:15 am 02:15 Clear 70 21 68 20 94 94 Calm 30.09 1019 10 16.09344 0 0
2:35 am 02:35 Clear 70 21 68 20 94 94 Calm 30.09 1019 10 16.09344 0 0
2:55 am 02:55 Clear 70 21 68 20 94 94 Calm 30.09 1019 10 16.09344 0 0
3:15 am 03:15 Clear 70 21 68 20 94 94 Calm 30.09 1019 10 16.09344 0 0
3:35 am 03:35 Clear 68 20 66 19 94 94 Calm 30.09 1019 10 16.09344 0 0
3:55 am 03:55 Clear 68 20 66 19 94 94 Calm 30.09 1019 10 16.09344 0 0
4:15 am 04:15 Clear 66 19 64 18 94 94 Calm 30.09 1019 10 16.09344 0 0
4:35 am 04:35 Clear 66 19 66 19 100 100 Calm 30.09 1019 10 16.09344 0 0
4:55 am 04:55 Clear 64 18 64 18 100 100 Calm 30.09 1019 10 16.09344 0 0
5:15 am 05:15 Clear 64 18 64 18 100 100 W 3 6 30.09 1019 10 16.09344 0 0
5:35 am 05:35 Clear 64 18 64 18 100 100 Calm 30.09 1019 10 16.09344 0 0
5:55 am 05:55 Clear 64 18 64 18 100 100 Calm 30.09 1019 10 16.09344 0 0
6:15 am 06:15 Sunny 66 19 64 18 94 94 N 5 7 30.09 1019 10 16.09344 0 0
6:35 am 06:35 Sunny 66 19 64 18 94 94 Calm 30.09 1019 10 16.09344 0 0
6:55 am 06:55 Sunny 66 19 64 18 94 94 Calm 30.09 1019 10 16.09344 0 0
7:15 am 07:15 Sunny 70 21 66 19 88 88 Calm 30.09 1019 10 16.09344 0 0
7:35 am 07:35 Sunny 72 22 64 18 78 78 Calm 30.12 1020 10 16.09344 0 0
7:55 am 07:55 Sunny 73 23 66 19 78 78 Calm 30.12 1020 10 16.09344 0 0
8:15 am 08:15 Sunny 73 23 66 19 78 78 Calm 30.12 1020 10 16.09344 0 0
8:35 am 08:35 Sunny 75 24 68 20 78 78 N 3 6 30.12 1020 10 16.09344 0 0
8:55 am 08:55 Sunny 77 25 68 20 74 74 NNW 5 7 30.12 1020 10 16.09344 0 0
9:15 am 09:15 Sunny 79 26 68 20 70 70 WNW 6 9 30.12 1020 10 16.09344 0 0
9:35 am 09:35 Sunny 79 26 68 20 70 70 NNW 8 13 30.12 1020 10 16.09344 0 0
9:55 am 09:55 Sunny 79 26 68 20 70 70 NNW 7 11 30.12 1020 10 16.09344 0 0
10:15 am 10:15 Sunny 81 27 68 20 66 66 NNW 3 6 30.12 1020 10 16.09344 0 0
10:35 am 10:35 Sunny 81 27 68 20 66 66 Calm 30.12 1020 10 16.09344 0 0
10:55 am 10:55 Sunny 82 28 68 20 62 62 NNW 3 6 30.12 1020 10 16.09344 0 0
11:15 am 11:15 Sunny 82 28 68 20 62 62 Calm 30.12 1020 10 16.09344 0 0
11:35 am 11:35 Sunny 84 29 70 21 62 62 NE 5 7 30.12 1020 10 16.09344 0 0
11:55 am 11:55 Sunny 84 29 68 20 58 58 Calm 30.12 1020 10 16.09344 0 0
12:15 pm 12:15 Sunny 86 30 70 21 59 59 Calm 30.09 1019 10 16.09344 0 0
12:35 pm 12:35 Sunny 86 30 68 20 55 55 Calm 30.09 1019 10 16.09344 0 0
12:55 pm 12:55 Sunny 86 30 70 21 59 59 Calm 30.09 1019 10 16.09344 0 0
1:15 pm 13:15 Partly Cloudy 88 31 70 21 55 55 WNW 5 7 30.09 1019 10 16.09344 0 0
1:35 pm 13:35 Mostly Cloudy 88 31 70 21 55 55 NW 6 9 30.09 1019 10 16.09344 0 0
1:55 pm 13:55 Mostly Cloudy 88 31 70 21 55 55 WNW 6 9 30.09 1019 10 16.09344 0 0
2:15 pm 14:15 Mostly Cloudy 88 31 70 21 55 55 W 7 11 30.09 1019 10 16.09344 0 0
2:35 pm 14:35 Partly Cloudy 88 31 70 21 55 55 WNW 5 7 30.09 1019 10 16.09344 0 0
2:55 pm 14:55 Mostly Cloudy 86 30 66 19 52 52 Calm 30.06 1018 10 16.09344 0 0
3:15 pm 15:15 Cloudy 88 31 68 20 52 52 W 5 7 30.03 1017 10 16.09344 0 0
3:35 pm 15:35 Cloudy with Light Rain 84 29 72 22 66 66 SSE 8 13 30.06 1018 10 16.09344 0 0
4:00 pm 16:00 Cloudy with Heavy Rain 81 27 70 21 70 70 NE 6 9 30.06 1018 2.5 4.02336 0.01 0.254
4:15 pm 16:15 Cloudy with Heavy Rain 77 25 72 22 83 83 N 5 7 30.06 1018 1.5 2.414016 0.22 5.588
4:35 pm 16:35 Partly Cloudy 79 26 77 25 94 94 Calm 30.03 1017 10 16.09344 0.22 5.588
4:55 pm 16:55 Sunny 82 28 75 24 79 79 Calm 30.03 1017 10 16.09344 0.22 5.588
5:15 pm 17:15 Sunny 84 29 72 22 66 66 Calm 30.03 1017 10 16.09344 0 0
5:35 pm 17:35 Sunny 86 30 70 21 59 59 Calm 30.03 1017 10 16.09344 0 0
5:55 pm 17:55 Sunny 82 28 73 23 74 74 Calm 30.03 1017 10 16.09344 0 0
6:15 pm 18:15 Sunny 84 29 73 23 70 70 Calm 30.03 1017 10 16.09344 0 0
6:35 pm 18:35 Sunny 82 28 75 24 79 79 Calm 30.03 1017 10 16.09344 0 0
6:55 pm 18:55 Sunny 82 28 73 23 74 74 Calm 30.06 1018 10 16.09344 0 0
7:15 pm 19:15 Sunny 82 28 73 23 74 74 Calm 30.06 1018 10 16.09344 0 0
7:35 pm 19:35 Sunny 82 28 72 22 70 70 E 3 6 30.06 1018 10 16.09344 0 0
7:55 pm 19:55 Sunny 82 28 70 21 66 66 Calm 30.06 1018 10 16.09344 0 0
8:15 pm 20:15 Sunny 81 27 72 22 74 74 Calm 30.06 1018 10 16.09344 0 0
8:35 pm 20:35 Clear 79 26 72 22 79 79 Calm 30.06 1018 10 16.09344 0 0
8:55 pm 20:55 Clear 79 26 72 22 79 79 SE 3 6 30.06 1018 10 16.09344 0 0
9:15 pm 21:15 Clear 81 27 72 22 74 74 Calm 30.06 1018 10 16.09344 0 0
9:35 pm 21:35 Clear 77 25 73 23 89 89 Calm 30.06 1018 10 16.09344 0 0
9:55 pm 21:55 Clear 77 25 73 23 89 89 Calm 30.06 1018 10 16.09344 0 0
10:15 pm 22:15 Clear 77 25 73 23 89 89 Calm 30.06 1018 10 16.09344 0 0
10:35 pm 22:35 Clear 77 25 72 22 83 83 Calm 30.06 1018 10 16.09344 0 0
10:55 pm 22:55 Clear 75 24 73 23 94 94 Calm 30.06 1018 10 16.09344 0 0
11:15 pm 23:15 Clear 73 23 73 23 100 100 Calm 30.06 1018 10 16.09344 0 0
11:35 pm 23:35 Clear 73 23 73 23 100 100 Calm 30.06 1018 10 16.09344 0 0
11:55 pm 23:55 Clear 73 23 73 23 100 100 Calm 30.06 1018 10 16.09344 0 0

Powered by AerisWeather